TimeMST,TemperatureF,Dew PointF,Humidity,Sea Level PressureIn,VisibilityMPH,Wind Direction,Wind SpeedMPH,Gust SpeedMPH,PrecipitationIn,Events,Conditions,WindDirDegrees,DateUTC
12:53 AM,19.9,12.9,74,30.12,10.0,WNW,3.5,-,N/A,,Scattered Clouds,300,2013-02-23 07:53:00
2:53 AM,17.1,9.0,71,30.10,10.0,South,6.9,-,N/A,,Clear,180,2013-02-23 09:53:00
3:53 AM,16.0,9.0,74,30.11,10.0,SW,6.9,-,N/A,,Clear,230,2013-02-23 10:53:00
4:53 AM,15.1,9.0,77,30.11,10.0,SSW,8.1,-,N/A,,Clear,200,2013-02-23 11:53:00
5:53 AM,15.1,8.1,74,30.11,10.0,Variable,5.8,-,N/A,,Scattered Clouds,0,2013-02-23 12:53:00
6:53 AM,16.0,9.0,74,30.11,10.0,Calm,Calm,-,N/A,,Overcast,0,2013-02-23 13:53:00
7:53 AM,17.1,10.0,74,30.10,10.0,Variable,4.6,-,N/A,,Overcast,0,2013-02-23 14:53:00
8:53 AM,19.0,10.9,71,30.09,10.0,West,3.5,-,N/A,,Overcast,260,2013-02-23 15:53:00
9:53 AM,25.0,10.0,53,30.04,10.0,Variable,6.9,-,N/A,,Overcast,0,2013-02-23 16:53:00
10:53 AM,24.1,10.0,55,30.02,10.0,Calm,Calm,-,N/A,,Overcast,0,2013-02-23 17:53:00
11:53 AM,26.1,14.0,60,29.96,7.0,Calm,Calm,-,0.00,Snow,Light Snow,0,2013-02-23 18:53:00
12:03 PM,24.8,15.8,69,29.86,2.5,Calm,Calm,-,0.00,Snow,Light Snow,0,2013-02-23 19:03:00
12:16 PM,24.8,17.6,74,29.85,1.5,Calm,Calm,-,0.00,Snow,Light Snow,0,2013-02-23 19:16:00
12:32 PM,24.8,19.4,80,29.84,3.0,Calm,Calm,-,0.00,Snow,Light Snow,0,2013-02-23 19:32:00
12:48 PM,26.6,19.4,74,29.82,7.0,Calm,Calm,-,0.00,Snow,Light Snow,0,2013-02-23 19:48:00
12:53 PM,26.1,19.9,78,29.92,9.0,Calm,Calm,-,0.00,,Overcast,0,2013-02-23 19:53:00
1:53 PM,28.9,19.0,67,29.85,10.0,Variable,3.5,-,N/A,,Overcast,0,2013-02-23 20:53:00
2:53 PM,30.9,19.0,61,29.80,10.0,West,6.9,-,N/A,,Mostly Cloudy,260,2013-02-23 21:53:00
3:53 PM,32.0,19.0,59,29.80,10.0,WNW,15.0,-,N/A,,Overcast,290,2013-02-23 22:53:00
4:53 PM,30.9,21.9,69,29.82,10.0,SW,8.1,-,N/A,,Overcast,220,2013-02-23 23:53:00
5:05 PM,30.2,24.8,80,29.72,2.5,SSW,8.1,-,0.00,Snow,Light Snow,200,2013-02-24 00:05:00
5:16 PM,30.2,24.8,80,29.73,3.0,SSW,8.1,16.1,0.00,Snow,Light Snow,200,2013-02-24 00:16:00
5:53 PM,28.9,25.0,85,29.84,9.0,ESE,3.5,-,0.00,,Overcast,110,2013-02-24 00:53:00
6:12 PM,28.4,24.8,86,29.74,4.0,East,5.8,-,0.00,Snow,Light Snow,100,2013-02-24 01:12:00
6:22 PM,28.4,26.6,93,29.74,2.5,ESE,4.6,-,0.00,Snow,Light Snow,120,2013-02-24 01:22:00
6:28 PM,28.4,26.6,93,29.74,4.0,SE,4.6,-,0.00,Snow,Light Snow,130,2013-02-24 01:28:00
6:46 PM,28.4,26.6,93,29.74,8.0,SE,6.9,-,0.00,Snow,Light Snow,130,2013-02-24 01:46:00
6:53 PM,28.0,26.1,92,29.85,9.0,SE,5.8,-,0.00,,Overcast,130,2013-02-24 01:53:00
7:36 PM,28.4,26.6,93,29.74,2.5,SE,3.5,-,0.00,Snow,Light Snow,130,2013-02-24 02:36:00
7:53 PM,28.0,26.1,92,29.84,2.5,Calm,Calm,-,0.00,Snow,Light Snow,0,2013-02-24 02:53:00
8:06 PM,28.4,26.6,93,29.74,1.2,Calm,Calm,-,0.00,Snow,Light Snow,0,2013-02-24 03:06:00
8:16 PM,28.4,26.6,93,29.73,1.0,Calm,Calm,-,0.00,Snow,Light Snow,0,2013-02-24 03:16:00
8:22 PM,28.4,26.6,93,29.73,1.0,Calm,Calm,-,0.00,Snow,Light Snow,0,2013-02-24 03:22:00
8:49 PM,28.4,26.6,93,29.73,1.5,SW,6.9,-,0.02,Snow,Light Snow,220,2013-02-24 03:49:00
8:53 PM,28.0,26.1,92,29.82,2.0,SSW,6.9,-,0.02,Snow,Light Snow,210,2013-02-24 03:53:00
9:01 PM,28.4,26.6,93,29.73,5.0,SW,5.8,-,0.00,Snow,Light Snow,220,2013-02-24 04:01:00
9:17 PM,28.4,24.8,86,29.73,1.8,WSW,9.2,-,0.00,Snow,Light Snow,240,2013-02-24 04:17:00
9:53 PM,28.0,26.1,92,29.79,1.5,Calm,Calm,-,0.00,Snow,Light Snow,0,2013-02-24 04:53:00
10:07 PM,26.6,21.2,80,29.74,2.0,NW,23.0,29.9,0.01,Snow,Light Snow,310,2013-02-24 05:07:00
10:19 PM,26.6,15.8,64,29.74,5.0,NW,25.3,34.5,0.01,Snow,Light Snow,310,2013-02-24 05:19:00
10:53 PM,26.1,17.1,69,29.82,10.0,West,13.8,-,0.01,,Overcast,280,2013-02-24 05:53:00
11:14 PM,24.8,19.4,80,29.74,4.0,West,18.4,-,0.00,Snow,Light Snow,280,2013-02-24 06:14:00
11:22 PM,24.8,21.2,86,29.74,1.8,West,17.3,-,0.00,Snow,Light Snow,280,2013-02-24 06:22:00
11:34 PM,24.8,21.2,86,29.74,3.0,West,17.3,-,0.00,Snow,Light Snow,260,2013-02-24 06:34:00
11:45 PM,24.8,19.4,80,29.74,8.0,West,16.1,-,0.00,Snow,Light Snow,260,2013-02-24 06:45:00
11:53 PM,25.0,19.0,78,29.81,9.0,WSW,19.6,-,0.00,Snow,Light Snow,250,2013-02-24 06:53:00